Location: Ertinghausen
(51.6624°N, 9.7874°E)
Time: 16:06:41
(UTC+00:00)

Cosmos 1455 - Pass Details

Date: 23 May 2024
Orbit: 445 x 459 km, 82.5° (Epoch: 23 June)

Event Time Altitude Azimuth Distance (km) Brightness Sun altitude
Rises 00:25:28 0° 353° (N) 2,462 6.9 -16.2°
Reaches altitude 10° 00:27:35 10° 358° (N) 1,586 5.8 -16.1°
Maximum altitude 00:30:58 52° 76° (ENE) 567 2.5 -15.9°
Enters shadow 00:32:57 22° 146° (SE) 1,035 3.4 -15.8°
